IW1CBG-23 Weather Reports


time (UTC)temp
C
wind
direction
speed
KPH
gust
KPH
rain 1hr
cm
rain 24hr
cm
rain mn
cm
humidity
%
barometer
mb
20260503180026 11 0.0 0.0 0.00 0.00 0.00 99 1012.7
20260503173949 11 0.0 0.0 0.00 0.00 0.00 99 1012.9
20260503171912 11 0.0 0.0 0.00 0.00 0.00 99 1012.9
20260503131146 12 0.0 0.0 0.00 0.00 0.00 71 1014.0
20260503110805 14 0.0 0.0 0.00 0.00 0.00 56 1014.4
20260503090416 15 0.0 0.0 0.00 0.00 0.00 48 1014.9
20260503080222 11 0.0 0.0 0.00 0.00 0.00 51 1014.9
20260503072106 12 0.0 0.0 0.00 0.00 0.00 49 1014.8
20260503053757 11 0.0 0.0 0.00 0.00 0.00 44 1014.9
20260503051718 11 0.0 0.0 0.00 0.00 0.00 46 1014.9
20260503045640 10 0.0 0.0 0.00 0.00 0.00 48 1014.9
20260503043603 10 0.0 0.0 0.00 0.00 0.00 51 1014.9
20260503041527 11 0.0 0.0 0.00 0.00 0.00 62 1014.9
20260503035448 11 0.0 0.0 0.00 0.00 0.00 59 1015.0
20260503033411 11 0.0 0.0 0.00 0.00 0.00 59 1015.1
20260503031334 11 0.0 0.0 0.00 0.00 0.00 66 1015.1
20260503025257 11 0.0 0.0 0.00 0.00 0.00 66 1015.3
20260503023220 11 0.0 0.0 0.00 0.00 0.00 65 1015.4
20260503021143 11 0.0 0.0 0.00 0.00 0.00 63 1015.5
20260503015106 11 0.0 0.0 0.00 0.00 0.00 62 1015.6
20260503010950 11 0.0 0.0 0.00 0.00 0.00 58 1015.7
20260503002836 12 0.0 0.0 0.00 0.00 0.00 67 1016.2
20260503000758 12 0.0 0.0 0.00 0.00 0.00 67 1016.4
20260502234721 12 0.0 0.0 0.00 0.00 0.00 68 1016.6
20260502232643 11 0.0 0.0 0.00 0.00 0.00 69 1016.7
20260502230605 12 0.0 0.0 0.00 0.00 0.00 68 1016.8
20260502224541 12 0.0 0.0 0.00 0.00 0.00 68 1016.9
20260502222449 12 0.0 0.0 0.00 0.00 0.00 65 1016.9
20260502220411 12 0.0 0.0 0.00 0.00 0.00 66 1017.1
20260502214334 11 0.0 0.0 0.00 0.00 0.00 60 1017.1
20260502212258 11 0.0 0.0 0.00 0.00 0.00 54 1016.9
20260502210220 11 0.0 0.0 0.00 0.00 0.00 55 1017.1
20260502204143 11 0.0 0.0 0.00 0.00 0.00 54 1017.2
20260502202105 12 0.0 0.0 0.00 0.00 0.00 56 1017.3
20260502200027 12 0.0 0.0 0.00 0.00 0.00 56 1017.3
20260502193951 11 0.0 0.0 0.00 0.00 0.00 56 1017.1
20260502191913 11 0.0 0.0 0.00 0.00 0.00 55 1016.9
20260502185837 11 0.0 0.0 0.00 0.00 0.00 56 1016.8
20260502183758 11 0.0 0.0 0.00 0.00 0.00 56 1016.6
20260502181721 12 0.0 0.0 0.00 0.00 0.00 56 1016.4